,,,PA_Meas_PMT16A,,PR_Meas_QMR101_102,,RH_Meas_QMH101,,SR_Meas_QMS101,,TA_Meas_QMH101,,GenWind,,GenWind,
date,time,status,PA,status,PR,status,RH,status,SR,status,TA,status,DirAvg,status,SpdAvg,
2008-09-21, 00:00:04,VALID,1010.54,VALID,0,VALID,95.0398,VALID,0.105969,VALID,23.5753,VALID,75,VALID,0.374219,
2008-09-21, 00:01:04,VALID,1010.54,VALID,0,VALID,95.0626,VALID,0,VALID,23.5948,VALID,75,VALID,0.300391,
2008-09-21, 00:02:04,VALID,1010.54,VALID,0,VALID,95.0703,VALID,0,VALID,23.6161,VALID,75,VALID,0.520312,
2008-09-21, 00:03:04,VALID,1010.56,VALID,0,VALID,95.1236,VALID,0,VALID,23.6143,VALID,75,VALID,0.309766,
2008-09-21, 00:04:04,VALID,1010.56,VALID,0,VALID,95.1465,VALID,0,VALID,23.6143,VALID,75,VALID,0.0511719,
2008-09-21, 00:05:04,VALID,1010.57,VALID,0,VALID,95.1465,VALID,0.105969,VALID,23.6143,VALID,75,VALID,0.388672,
2008-09-21, 00:06:04,VALID,1010.59,VALID,0,VALID,95.1465,VALID,0.105969,VALID,23.6338,VALID,75,VALID,0.402734,
2008-09-21, 00:07:04,VALID,1010.61,VALID,0,VALID,95.1923,VALID,0,VALID,23.6356,VALID,75,VALID,0.263281,
2008-09-21, 00:08:04,VALID,1010.62,VALID,0,VALID,95.1923,VALID,0,VALID,23.6745,VALID,84,VALID,0.747656,
2008-09-21, 00:09:04,VALID,1010.62,VALID,0,VALID,95.2152,VALID,0,VALID,23.6745,VALID,98,VALID,0.757031,
2008-09-21, 00:10:04,VALID,1010.62,VALID,0,VALID,95.2152,VALID,0,VALID,23.694,VALID,117,VALID,0.742969,
2008-09-21, 00:11:04,VALID,1010.65,VALID,0,VALID,95.2075,VALID,0,VALID,23.7135,VALID,105,VALID,0.771094,
2008-09-21, 00:12:04,VALID,1010.61,VALID,0,VALID,95.1999,VALID,0,VALID,23.7135,VALID,105,VALID,0.837891,
2008-09-21, 00:13:04,VALID,1010.61,VALID,0,VALID,95.1999,VALID,0,VALID,23.7525,VALID,106,VALID,0.846484,
2008-09-21, 00:14:04,VALID,1010.56,VALID,0,VALID,95.177,VALID,0,VALID,23.7914,VALID,116,VALID,0.573438,
2008-09-21, 00:15:04,VALID,1010.54,VALID,0,VALID,95.1618,VALID,0,VALID,23.7914,VALID,107,VALID,0.847266,
2008-09-21, 00:16:04,VALID,1010.53,VALID,0,VALID,95.0855,VALID,0,VALID,23.733,VALID,100,VALID,1.09922,
2008-09-21, 00:17:04,VALID,1010.51,VALID,0,VALID,95.0398,VALID,0,VALID,23.7312,VALID,104,VALID,1.04219,
2008-09-21, 00:18:04,VALID,1010.49,VALID,0,VALID,95.0245,VALID,0,VALID,23.772,VALID,110,VALID,0.510938,
2008-09-21, 00:19:04,VALID,1010.48,VALID,0,VALID,95.0093,VALID,0,VALID,23.7525,VALID,100,VALID,0.910156,
2008-09-21, 00:20:04,VALID,1010.47,VALID,0,VALID,94.9635,VALID,0,VALID,23.733,VALID,94,VALID,0.529297,
2008-09-21, 00:21:04,VALID,1010.47,VALID,0,VALID,94.933,VALID,0,VALID,23.7135,VALID,94,VALID,0.541016,
2008-09-21, 00:22:04,VALID,1010.43,VALID,0,VALID,94.9101,VALID,0.105969,VALID,23.7507,VALID,94,VALID,0.348437,
2008-09-21, 00:23:04,VALID,1010.45,VALID,0,VALID,94.8949,VALID,0,VALID,23.7507,VALID,94,VALID,0.316406,
2008-09-21, 00:24:04,VALID,1010.46,VALID,0,VALID,94.8796,VALID,0,VALID,23.7525,VALID,94,VALID,0.405859,
2008-09-21, 00:25:04,VALID,1010.44,VALID,0,VALID,94.8491,VALID,0,VALID,23.7312,VALID,94,VALID,0.319141,
2008-09-21, 00:26:04,VALID,1010.42,VALID,0,VALID,94.8491,VALID,0,VALID,23.7525,VALID,94,VALID,0.159375,
2008-09-21, 00:27:04,VALID,1010.42,VALID,0,VALID,94.8491,VALID,0,VALID,23.7312,VALID,94,VALID,0.314063,
2008-09-21, 00:28:04,VALID,1010.4,VALID,0,VALID,94.8644,VALID,0,VALID,23.7914,VALID,94,VALID,0.0726563,
2008-09-21, 00:29:04,VALID,1010.38,VALID,0,VALID,94.8415,VALID,0,VALID,23.7507,VALID,94,VALID,0.167969,
2008-09-21, 00:30:04,VALID,1010.38,VALID,0,VALID,94.8339,VALID,0,VALID,23.7914,VALID,94,VALID,0.0703125,
2008-09-21, 00:31:04,VALID,1010.37,VALID,0,VALID,94.8339,VALID,0,VALID,23.7507,VALID,94,VALID,0.0835937,
2008-09-21, 00:32:04,VALID,1010.34,VALID,0,VALID,94.8262,VALID,0.105969,VALID,23.7507,VALID,94,VALID,0,
2008-09-21, 00:33:04,VALID,1010.34,VALID,0,VALID,94.8415,VALID,0,VALID,23.7312,VALID,94,VALID,0,
2008-09-21, 00:34:04,VALID,1010.3,VALID,0,VALID,94.8339,VALID,0,VALID,23.7312,VALID,94,VALID,0,
2008-09-21, 00:35:04,VALID,1010.32,VALID,0,VALID,94.8568,VALID,0,VALID,23.7117,VALID,101,VALID,0.177344,
2008-09-21, 00:36:04,VALID,1010.31,VALID,0,VALID,94.8796,VALID,0,VALID,23.7507,VALID,136,VALID,0.470313,
2008-09-21, 00:37:04,VALID,1010.31,VALID,0,VALID,94.872,VALID,0,VALID,23.7312,VALID,136,VALID,0.333594,
2008-09-21, 00:38:04,VALID,1010.34,VALID,0,VALID,94.8415,VALID,0,VALID,23.7117,VALID,136,VALID,0.263281,
2008-09-21, 00:39:04,VALID,1010.32,VALID,0,VALID,94.7957,VALID,0,VALID,23.7117,VALID,136,VALID,0.121875,
2008-09-21, 00:40:04,VALID,1010.34,VALID,0,VALID,94.7805,VALID,0,VALID,23.7525,VALID,136,VALID,0,
2008-09-21, 00:41:04,VALID,1010.31,VALID,0,VALID,94.7652,VALID,0,VALID,23.7507,VALID,136,VALID,0.0953125,
2008-09-21, 00:42:04,VALID,1010.32,VALID,0,VALID,94.7652,VALID,0.105969,VALID,23.7701,VALID,136,VALID,0,
2008-09-21, 00:43:04,VALID,1010.3,VALID,0,VALID,94.7424,VALID,0,VALID,23.7701,VALID,136,VALID,0.0195313,
2008-09-21, 00:44:04,VALID,1010.31,VALID,0,VALID,94.7042,VALID,0,VALID,23.7701,VALID,132,VALID,0.471875,
2008-09-21, 00:45:04,VALID,1010.25,VALID,0,VALID,94.7119,VALID,0,VALID,23.7896,VALID,91,VALID,0.473437,
2008-09-21, 00:46:04,VALID,1010.25,VALID,0,VALID,94.6814,VALID,0,VALID,23.7896,VALID,75,VALID,0.497266,
2008-09-21, 00:47:04,VALID,1010.23,VALID,0,VALID,94.6585,VALID,0,VALID,23.8109,VALID,75,VALID,0.367969,
2008-09-21, 00:48:04,VALID,1010.18,VALID,0,VALID,94.6585,VALID,0.105969,VALID,23.7896,VALID,64,VALID,0.214062,
2008-09-21, 00:49:04,VALID,1010.17,VALID,0,VALID,94.6737,VALID,0.105969,VALID,23.7701,VALID,64,VALID,0.21875,
2008-09-21, 00:50:04,VALID,1010.09,VALID,0,VALID,94.6737,VALID,0,VALID,23.7701,VALID,64,VALID,0,
2008-09-21, 00:51:04,VALID,1010.06,VALID,0,VALID,94.689,VALID,0,VALID,23.7507,VALID,64,VALID,0.279687,
2008-09-21, 00:52:04,VALID,1010.01,VALID,0,VALID,94.6737,VALID,0,VALID,23.7507,VALID,319,VALID,0.592969,
2008-09-21, 00:53:04,VALID,1009.96,VALID,0,VALID,94.6661,VALID,0,VALID,23.7312,VALID,319,VALID,0.751172,
2008-09-21, 00:54:04,VALID,1009.93,VALID,0,VALID,94.6356,VALID,0,VALID,23.6922,VALID,328,VALID,0.690625,
2008-09-21, 00:55:04,VALID,1009.91,VALID,0,VALID,94.6585,VALID,0,VALID,23.6727,VALID,333,VALID,0.419922,
2008-09-21, 00:56:04,VALID,1009.92,VALID,0,VALID,94.6356,VALID,0,VALID,23.6745,VALID,342,VALID,0.467578,
2008-09-21, 00:57:04,VALID,1009.93,VALID,0,VALID,94.6737,VALID,0,VALID,23.6338,VALID,358,VALID,0.469531,
2008-09-21, 00:58:04,VALID,1009.92,VALID,0,VALID,94.7195,VALID,0.105969,VALID,23.6356,VALID,358,VALID,0.4,
2008-09-21, 00:59:04,VALID,1009.92,VALID,0,VALID,94.7424,VALID,0,VALID,23.6143,VALID,358,VALID,0.505078,
2008-09-21, 01:00:04,VALID,1009.94,VALID,0,VALID,94.7729,VALID,0,VALID,23.5948,VALID,358,VALID,0.499609,
2008-09-21, 01:01:04,VALID,1009.9,VALID,0,VALID,94.8186,VALID,0,VALID,23.5948,VALID,358,VALID,0.362109,
2008-09-21, 01:02:04,VALID,1009.88,VALID,0,VALID,94.8415,VALID,0,VALID,23.6161,VALID,358,VALID,0.636328,
2008-09-21, 01:03:04,VALID,1009.92,VALID,0,VALID,94.8796,VALID,0,VALID,23.5966,VALID,358,VALID,0.583203,
2008-09-21, 01:04:04,VALID,1009.92,VALID,0,VALID,94.9178,VALID,0,VALID,23.5753,VALID,358,VALID,0.527734,
2008-09-21, 01:05:04,VALID,1009.92,VALID,0,VALID,94.933,VALID,0,VALID,23.5753,VALID,358,VALID,0.440234,
2008-09-21, 01:06:04,VALID,1009.89,VALID,0,VALID,94.9254,VALID,0,VALID,23.5771,VALID,358,VALID,0.348828,
2008-09-21, 01:07:04,VALID,1009.88,VALID,0,VALID,94.9788,VALID,0,VALID,23.5558,VALID,358,VALID,0.271484,
2008-09-21, 01:08:04,VALID,1009.87,VALID,0,VALID,94.9788,VALID,0,VALID,23.5771,VALID,358,VALID,0.351563,
2008-09-21, 01:09:04,VALID,1009.83,VALID,0,VALID,94.994,VALID,0,VALID,23.5558,VALID,358,VALID,0.573047,
2008-09-21, 01:10:04,VALID,1009.8,VALID,0,VALID,95.0016,VALID,0,VALID,23.5363,VALID,358,VALID,0.616406,
2008-09-21, 01:11:04,VALID,1009.77,VALID,0,VALID,95.0245,VALID,0,VALID,23.5576,VALID,358,VALID,0.516406,
2008-09-21, 01:12:04,VALID,1009.74,VALID,0,VALID,95.055,VALID,0,VALID,23.5169,VALID,358,VALID,0.607813,
2008-09-21, 01:13:04,VALID,1009.71,VALID,0,VALID,95.0703,VALID,0,VALID,23.5169,VALID,20,VALID,0.642969,
2008-09-21, 01:14:04,VALID,1009.72,VALID,0,VALID,95.0703,VALID,0,VALID,23.5169,VALID,20,VALID,0.630859,
2008-09-21, 01:15:04,VALID,1009.7,VALID,0,VALID,95.1084,VALID,0,VALID,23.5381,VALID,20,VALID,0.524609,
2008-09-21, 01:16:04,VALID,1009.67,VALID,0,VALID,95.1389,VALID,0,VALID,23.5169,VALID,20,VALID,0.557422,
2008-09-21, 01:17:04,VALID,1009.68,VALID,0,VALID,95.1236,VALID,0,VALID,23.4974,VALID,20,VALID,0.371484,
2008-09-21, 01:18:04,VALID,1009.68,VALID,0,VALID,95.1389,VALID,0,VALID,23.4779,VALID,23,VALID,0.371875,
2008-09-21, 01:19:04,VALID,1009.69,VALID,0,VALID,95.1694,VALID,0,VALID,23.4992,VALID,23,VALID,0.375,
2008-09-21, 01:20:04,VALID,1009.69,VALID,0,VALID,95.177,VALID,0,VALID,23.4389,VALID,23,VALID,0.307031,
2008-09-21, 01:21:04,VALID,1009.64,VALID,0,VALID,95.1847,VALID,0,VALID,23.4584,VALID,23,VALID,0.226953,
2008-09-21, 01:22:04,VALID,1009.66,VALID,0,VALID,95.1847,VALID,0,VALID,23.4584,VALID,65,VALID,0.442969,
2008-09-21, 01:23:04,VALID,1009.64,VALID,0,VALID,95.2152,VALID,0.105969,VALID,23.4779,VALID,74,VALID,0.378906,
2008-09-21, 01:24:04,VALID,1009.61,VALID,0,VALID,95.2609,VALID,0,VALID,23.5186,VALID,79,VALID,0.642578,
2008-09-21, 01:25:04,VALID,1009.59,VALID,0,VALID,95.2685,VALID,0,VALID,23.5186,VALID,89,VALID,0.955859,
2008-09-21, 01:26:04,VALID,1009.6,VALID,0,VALID,95.2609,VALID,0,VALID,23.4779,VALID,81,VALID,1.03555,
2008-09-21, 01:27:04,VALID,1009.58,VALID,0,VALID,95.2533,VALID,0,VALID,23.4779,VALID,93,VALID,0.797266,
2008-09-21, 01:28:04,VALID,1009.6,VALID,0,VALID,95.2609,VALID,0,VALID,23.4992,VALID,88,VALID,0.940625,
2008-09-21, 01:29:04,VALID,1009.57,VALID,0,VALID,95.2533,VALID,0,VALID,23.5186,VALID,94,VALID,0.858203,
2008-09-21, 01:30:04,VALID,1009.6,VALID,0,VALID,95.299,VALID,0,VALID,23.5381,VALID,97,VALID,0.616016,
2008-09-21, 01:31:04,VALID,1009.6,VALID,0,VALID,95.2914,VALID,0,VALID,23.4974,VALID,117,VALID,0.739453,
2008-09-21, 01:32:04,VALID,1009.62,VALID,0,VALID,95.2762,VALID,0,VALID,23.5186,VALID,105,VALID,0.799219,
2008-09-21, 01:33:04,VALID,1009.62,VALID,0,VALID,95.2762,VALID,0,VALID,23.4974,VALID,115,VALID,0.595312,
2008-09-21, 01:34:04,VALID,1009.62,VALID,0,VALID,95.2609,VALID,0,VALID,23.4974,VALID,161,VALID,0.736328,
2008-09-21, 01:35:04,VALID,1009.6,VALID,0,VALID,95.2685,VALID,0.105969,VALID,23.4974,VALID,160,VALID,0.6375,
2008-09-21, 01:36:04,VALID,1009.6,VALID,0,VALID,95.2762,VALID,0.105969,VALID,23.5169,VALID,175,VALID,0.852734,
2008-09-21, 01:37:04,VALID,1009.6,VALID,0,VALID,95.2609,VALID,0,VALID,23.5169,VALID,176,VALID,0.945313,
2008-09-21, 01:38:04,VALID,1009.57,VALID,0,VALID,95.2533,VALID,0,VALID,23.5363,VALID,179,VALID,1.08398,
2008-09-21, 01:39:04,VALID,1009.56,VALID,0,VALID,95.2533,VALID,0,VALID,23.5363,VALID,175,VALID,1.05352,
2008-09-21, 01:40:04,VALID,1009.57,VALID,0,VALID,95.2304,VALID,0,VALID,23.5169,VALID,188,VALID,1.11055,
2008-09-21, 01:41:04,VALID,1009.55,VALID,0,VALID,95.2152,VALID,0,VALID,23.5363,VALID,198,VALID,1.19258,
2008-09-21, 01:42:04,VALID,1009.52,VALID,0,VALID,95.2152,VALID,0,VALID,23.5558,VALID,177,VALID,0.947266,
2008-09-21, 01:43:04,VALID,1009.5,VALID,0,VALID,95.2228,VALID,0,VALID,23.5558,VALID,185,VALID,0.342969,
2008-09-21, 01:44:04,VALID,1009.46,VALID,0,VALID,95.2152,VALID,0,VALID,23.5771,VALID,186,VALID,0.499609,
2008-09-21, 01:45:04,VALID,1009.45,VALID,0,VALID,95.1923,VALID,0,VALID,23.5363,VALID,192,VALID,0.503906,
2008-09-21, 01:46:04,VALID,1009.4,VALID,0,VALID,95.1999,VALID,0,VALID,23.5576,VALID,192,VALID,0.347266,
2008-09-21, 01:47:04,VALID,1009.42,VALID,0,VALID,95.1694,VALID,0,VALID,23.5363,VALID,192,VALID,0.471484,
2008-09-21, 01:48:04,VALID,1009.41,VALID,0,VALID,95.1542,VALID,0,VALID,23.5363,VALID,192,VALID,0.378516,
2008-09-21, 01:49:04,VALID,1009.39,VALID,0,VALID,95.1542,VALID,0,VALID,23.5363,VALID,192,VALID,0.397266,
2008-09-21, 01:50:04,VALID,1009.41,VALID,0,VALID,95.1389,VALID,0,VALID,23.5576,VALID,192,VALID,0.379297,
2008-09-21, 01:51:04,VALID,1009.4,VALID,0,VALID,95.1465,VALID,0,VALID,23.5558,VALID,193,VALID,0.307813,
2008-09-21, 01:52:04,VALID,1009.41,VALID,0,VALID,95.1618,VALID,0,VALID,23.5558,VALID,193,VALID,0.307031,
2008-09-21, 01:53:04,VALID,1009.38,VALID,0,VALID,95.1542,VALID,0,VALID,23.5966,VALID,193,VALID,0.4375,
2008-09-21, 01:54:04,VALID,1009.4,VALID,0,VALID,95.1313,VALID,0,VALID,23.5966,VALID,186,VALID,0.626172,
2008-09-21, 01:55:04,VALID,1009.37,VALID,0,VALID,95.1465,VALID,0,VALID,23.5558,VALID,186,VALID,0.4375,
2008-09-21, 01:56:04,VALID,1009.38,VALID,0,VALID,95.1313,VALID,0,VALID,23.6161,VALID,186,VALID,0.246875,
2008-09-21, 01:57:04,VALID,1009.39,VALID,0,VALID,95.1465,VALID,0,VALID,23.5948,VALID,186,VALID,0,
2008-09-21, 01:58:04,VALID,1009.37,VALID,0,VALID,95.1236,VALID,0,VALID,23.5948,VALID,186,VALID,0.290234,
2008-09-21, 01:59:04,VALID,1009.41,VALID,0,VALID,95.1084,VALID,0,VALID,23.5753,VALID,21,VALID,0.754297,
2008-09-21, 02:00:04,VALID,1009.4,VALID,0,VALID,95.0779,VALID,0,VALID,23.5558,VALID,21,VALID,0.382813,
2008-09-21, 02:01:04,VALID,1009.41,VALID,0,VALID,95.0703,VALID,0,VALID,23.5363,VALID,21,VALID,0.464844,
2008-09-21, 02:02:04,VALID,1009.42,VALID,0,VALID,95.0779,VALID,0,VALID,23.5576,VALID,21,VALID,0.303125,
2008-09-21, 02:03:04,VALID,1009.43,VALID,0,VALID,95.0855,VALID,0,VALID,23.5381,VALID,21,VALID,0,
2008-09-21, 02:04:04,VALID,1009.43,VALID,0,VALID,95.1008,VALID,0,VALID,23.5381,VALID,21,VALID,0,
2008-09-21, 02:05:04,VALID,1009.43,VALID,0,VALID,95.0931,VALID,0,VALID,23.5169,VALID,21,VALID,0.00117188,
2008-09-21, 02:06:04,VALID,1009.42,VALID,0,VALID,95.116,VALID,0,VALID,23.5558,VALID,318,VALID,0.483984,
2008-09-21, 02:07:04,VALID,1009.39,VALID,0,VALID,95.1236,VALID,0,VALID,23.5576,VALID,320,VALID,0.629687,
2008-09-21, 02:08:04,VALID,1009.41,VALID,0,VALID,95.0931,VALID,0,VALID,23.5169,VALID,326,VALID,0.551953,
2008-09-21, 02:09:04,VALID,1009.36,VALID,0,VALID,95.0855,VALID,0,VALID,23.4974,VALID,327,VALID,0.458203,
2008-09-21, 02:10:04,VALID,1009.37,VALID,0,VALID,95.0855,VALID,0,VALID,23.4992,VALID,336,VALID,0.526563,
2008-09-21, 02:11:04,VALID,1009.36,VALID,0,VALID,95.0779,VALID,0,VALID,23.4992,VALID,336,VALID,0.417188,
2008-09-21, 02:12:04,VALID,1009.4,VALID,0,VALID,95.0855,VALID,0,VALID,23.4992,VALID,336,VALID,0.552344,
2008-09-21, 02:13:04,VALID,1009.39,VALID,0,VALID,95.1008,VALID,0,VALID,23.4602,VALID,344,VALID,0.442187,
2008-09-21, 02:14:04,VALID,1009.42,VALID,0,VALID,95.1084,VALID,0,VALID,23.4602,VALID,344,VALID,0.187109,
2008-09-21, 02:15:04,VALID,1009.48,VALID,0,VALID,95.1389,VALID,0,VALID,23.4389,VALID,344,VALID,0,
2008-09-21, 02:16:04,VALID,1009.49,VALID,0,VALID,95.1694,VALID,0,VALID,23.4194,VALID,340,VALID,0.173828,
2008-09-21, 02:17:04,VALID,1009.54,VALID,0,VALID,95.2152,VALID,0,VALID,23.4584,VALID,207,VALID,0.960938,
2008-09-21, 02:18:04,VALID,1009.58,VALID,0,VALID,95.2152,VALID,0,VALID,23.4779,VALID,205,VALID,1.10312,
2008-09-21, 02:19:04,VALID,1009.58,VALID,0,VALID,95.238,VALID,0,VALID,23.4974,VALID,202,VALID,0.838672,
2008-09-21, 02:20:04,VALID,1009.57,VALID,0,VALID,95.2228,VALID,0,VALID,23.4992,VALID,202,VALID,0.510156,
2008-09-21, 02:21:04,VALID,1009.58,VALID,0,VALID,95.2533,VALID,0,VALID,23.5169,VALID,220,VALID,0.361719,
2008-09-21, 02:22:04,VALID,1009.56,VALID,0,VALID,95.2685,VALID,0.105969,VALID,23.5169,VALID,220,VALID,0.397656,
2008-09-21, 02:23:04,VALID,1009.53,VALID,0,VALID,95.2762,VALID,0,VALID,23.5363,VALID,225,VALID,0.433594,
2008-09-21, 02:24:04,VALID,1009.55,VALID,0,VALID,95.2838,VALID,0,VALID,23.5558,VALID,232,VALID,0.187109,
2008-09-21, 02:25:04,VALID,1009.55,VALID,0,VALID,95.2914,VALID,0,VALID,23.5966,VALID,232,VALID,0.145703,
2008-09-21, 02:26:04,VALID,1009.53,VALID,0,VALID,95.2838,VALID,0.105969,VALID,23.5948,VALID,232,VALID,0.222266,
2008-09-21, 02:27:04,VALID,1009.51,VALID,0,VALID,95.2914,VALID,0,VALID,23.5753,VALID,232,VALID,0.339453,
2008-09-21, 02:28:04,VALID,1009.5,VALID,0,VALID,95.2685,VALID,0,VALID,23.6356,VALID,232,VALID,0.134375,
2008-09-21, 02:29:04,VALID,1009.49,VALID,0,VALID,95.2685,VALID,0,VALID,23.6161,VALID,232,VALID,0.357422,
2008-09-21, 02:30:04,VALID,1009.48,VALID,0,VALID,95.2685,VALID,0,VALID,23.6161,VALID,232,VALID,0.195313,
2008-09-21, 02:31:04,VALID,1009.47,VALID,0,VALID,95.2533,VALID,0,VALID,23.6143,VALID,206,VALID,0.305078,
2008-09-21, 02:32:04,VALID,1009.48,VALID,0,VALID,95.2609,VALID,0,VALID,23.5948,VALID,206,VALID,0.286328,
2008-09-21, 02:33:04,VALID,1009.48,VALID,0,VALID,95.2533,VALID,0,VALID,23.6161,VALID,206,VALID,0.234375,
2008-09-21, 02:34:04,VALID,1009.5,VALID,0,VALID,95.2228,VALID,0,VALID,23.6143,VALID,206,VALID,0.135937,
2008-09-21, 02:35:04,VALID,1009.48,VALID,0,VALID,95.2228,VALID,0,VALID,23.6161,VALID,206,VALID,0.153125,
2008-09-21, 02:36:04,VALID,1009.48,VALID,0,VALID,95.1999,VALID,0,VALID,23.5948,VALID,206,VALID,0.0699219,
2008-09-21, 02:37:04,VALID,1009.5,VALID,0,VALID,95.2075,VALID,0.105969,VALID,23.5948,VALID,206,VALID,0.151953,
2008-09-21, 02:38:04,VALID,1009.52,VALID,0,VALID,95.1923,VALID,0,VALID,23.5558,VALID,206,VALID,0.00898437,
2008-09-21, 02:39:04,VALID,1009.52,VALID,0,VALID,95.1847,VALID,0.105969,VALID,23.5558,VALID,206,VALID,0,
2008-09-21, 02:40:04,VALID,1009.55,VALID,0,VALID,95.2075,VALID,0.105969,VALID,23.5558,VALID,206,VALID,0.124609,
2008-09-21, 02:41:04,VALID,1009.56,VALID,0,VALID,95.2075,VALID,0.105969,VALID,23.5753,VALID,206,VALID,0.307031,
2008-09-21, 02:42:04,VALID,1009.56,VALID,0,VALID,95.2304,VALID,0,VALID,23.5771,VALID,206,VALID,0.106641,
2008-09-21, 02:43:04,VALID,1009.52,VALID,0,VALID,95.2304,VALID,0.105969,VALID,23.5753,VALID,206,VALID,0,
2008-09-21, 02:44:04,VALID,1009.52,VALID,0,VALID,95.2533,VALID,0,VALID,23.5753,VALID,206,VALID,0,
2008-09-21, 02:45:04,VALID,1009.48,VALID,0,VALID,95.238,VALID,0,VALID,23.5753,VALID,206,VALID,0.232031,
2008-09-21, 02:46:04,VALID,1009.48,VALID,0,VALID,95.2533,VALID,0.105969,VALID,23.5753,VALID,206,VALID,0.403906,
2008-09-21, 02:47:04,VALID,1009.45,VALID,0,VALID,95.2304,VALID,0,VALID,23.5753,VALID,206,VALID,0.265625,
2008-09-21, 02:48:04,VALID,1009.47,VALID,0,VALID,95.2228,VALID,0.105969,VALID,23.5558,VALID,206,VALID,0.24375,
2008-09-21, 02:49:04,VALID,1009.42,VALID,0,VALID,95.2228,VALID,0,VALID,23.5363,VALID,206,VALID,0.109375,
2008-09-21, 02:50:04,VALID,1009.43,VALID,0,VALID,95.2152,VALID,0,VALID,23.5363,VALID,206,VALID,0.181641,
2008-09-21, 02:51:04,VALID,1009.44,VALID,0,VALID,95.2152,VALID,0,VALID,23.5169,VALID,206,VALID,0.0835937,
2008-09-21, 02:52:04,VALID,1009.47,VALID,0,VALID,95.2152,VALID,0,VALID,23.5169,VALID,206,VALID,0.138281,
2008-09-21, 02:53:04,VALID,1009.47,VALID,0,VALID,95.2304,VALID,0,VALID,23.5169,VALID,206,VALID,0.0171875,
2008-09-21, 02:54:04,VALID,1009.46,VALID,0,VALID,95.2152,VALID,0,VALID,23.5169,VALID,216,VALID,0.417578,
2008-09-21, 02:55:04,VALID,1009.46,VALID,0,VALID,95.2075,VALID,0,VALID,23.5363,VALID,335,VALID,0.745313,
2008-09-21, 02:56:04,VALID,1009.45,VALID,0,VALID,95.1847,VALID,0,VALID,23.4992,VALID,335,VALID,0.596094,
2008-09-21, 02:57:04,VALID,1009.47,VALID,0,VALID,95.1847,VALID,0,VALID,23.5186,VALID,335,VALID,0.341016,
2008-09-21, 02:58:04,VALID,1009.46,VALID,0,VALID,95.2075,VALID,0,VALID,23.4584,VALID,335,VALID,0.300781,
2008-09-21, 02:59:04,VALID,1009.48,VALID,0,VALID,95.1999,VALID,0,VALID,23.4797,VALID,339,VALID,0.442969,
2008-09-21, 03:00:04,VALID,1009.46,VALID,0,VALID,95.2075,VALID,0,VALID,23.4389,VALID,353,VALID,0.347656,
2008-09-21, 03:01:04,VALID,1009.5,VALID,0,VALID,95.2228,VALID,0,VALID,23.4389,VALID,353,VALID,0.151562,
2008-09-21, 03:02:04,VALID,1009.49,VALID,0,VALID,95.2075,VALID,0,VALID,23.4407,VALID,353,VALID,0.00195313,
2008-09-21, 03:03:04,VALID,1009.52,VALID,0,VALID,95.2304,VALID,0.105969,VALID,23.4389,VALID,353,VALID,0,
2008-09-21, 03:04:04,VALID,1009.51,VALID,0,VALID,95.2685,VALID,0,VALID,23.4194,VALID,353,VALID,0.0351563,
2008-09-21, 03:05:04,VALID,1009.54,VALID,0,VALID,95.2533,VALID,0,VALID,23.4407,VALID,353,VALID,0,
2008-09-21, 03:06:04,VALID,1009.51,VALID,0,VALID,95.2609,VALID,0,VALID,23.4194,VALID,353,VALID,0,
2008-09-21, 03:07:04,VALID,1009.49,VALID,0,VALID,95.2762,VALID,0,VALID,23.4407,VALID,353,VALID,0,
2008-09-21, 03:08:04,VALID,1009.48,VALID,0,VALID,95.2838,VALID,0.105969,VALID,23.4389,VALID,353,VALID,0.0621094,
2008-09-21, 03:09:04,VALID,1009.45,VALID,0,VALID,95.3067,VALID,0,VALID,23.4584,VALID,353,VALID,0.00195313,
2008-09-21, 03:10:04,VALID,1009.45,VALID,0,VALID,95.2914,VALID,0.105969,VALID,23.4389,VALID,353,VALID,0.210156,
2008-09-21, 03:11:04,VALID,1009.47,VALID,0,VALID,95.2914,VALID,0.105969,VALID,23.4389,VALID,353,VALID,0.293359,
2008-09-21, 03:12:04,VALID,1009.46,VALID,0,VALID,95.2685,VALID,0,VALID,23.4194,VALID,353,VALID,0.382422,
2008-09-21, 03:13:04,VALID,1009.46,VALID,0,VALID,95.2838,VALID,0,VALID,23.4212,VALID,353,VALID,0.19375,
2008-09-21, 03:14:04,VALID,1009.49,VALID,0,VALID,95.3067,VALID,0,VALID,23.4407,VALID,353,VALID,0,
2008-09-21, 03:15:04,VALID,1009.48,VALID,0,VALID,95.3067,VALID,0,VALID,23.4212,VALID,353,VALID,0.251563,
2008-09-21, 03:16:04,VALID,1009.5,VALID,0,VALID,95.299,VALID,0.105969,VALID,23.4212,VALID,353,VALID,0.346094,
2008-09-21, 03:17:04,VALID,1009.5,VALID,0,VALID,95.3143,VALID,0,VALID,23.4602,VALID,353,VALID,0.223438,
2008-09-21, 03:18:04,VALID,1009.48,VALID,0,VALID,95.3372,VALID,0.105969,VALID,23.4194,VALID,353,VALID,0.0359375,
2008-09-21, 03:19:04,VALID,1009.5,VALID,0,VALID,95.36,VALID,0,VALID,23.4992,VALID,353,VALID,0,
2008-09-21, 03:20:04,VALID,1009.5,VALID,0,VALID,95.3524,VALID,0.105969,VALID,23.5186,VALID,353,VALID,0,
2008-09-21, 03:21:04,VALID,1009.49,VALID,0,VALID,95.3677,VALID,0,VALID,23.5186,VALID,353,VALID,0,
2008-09-21, 03:22:04,VALID,1009.5,VALID,0,VALID,95.3677,VALID,0,VALID,23.4974,VALID,353,VALID,0,
2008-09-21, 03:23:04,VALID,1009.54,VALID,0,VALID,95.3753,VALID,0.105969,VALID,23.5169,VALID,353,VALID,0,
2008-09-21, 03:24:04,VALID,1009.52,VALID,0,VALID,95.3753,VALID,0,VALID,23.5381,VALID,353,VALID,0.158984,
2008-09-21, 03:25:04,VALID,1009.55,VALID,0,VALID,95.3905,VALID,0.105969,VALID,23.5363,VALID,127,VALID,0.53125,
2008-09-21, 03:26:04,VALID,1009.6,VALID,0,VALID,95.3905,VALID,0,VALID,23.5576,VALID,127,VALID,0.343359,
2008-09-21, 03:27:04,VALID,1009.62,VALID,0,VALID,95.3982,VALID,0.105969,VALID,23.5558,VALID,127,VALID,0.326172,
2008-09-21, 03:28:04,VALID,1009.63,VALID,0,VALID,95.4058,VALID,0,VALID,23.5948,VALID,127,VALID,0.260547,
2008-09-21, 03:29:04,VALID,1009.65,VALID,0,VALID,95.4134,VALID,0,VALID,23.5948,VALID,127,VALID,0.0816406,
2008-09-21, 03:30:04,VALID,1009.66,VALID,0,VALID,95.4211,VALID,0,VALID,23.5966,VALID,127,VALID,0.00703125,
2008-09-21, 03:31:04,VALID,1009.67,VALID,0,VALID,95.4134,VALID,0,VALID,23.5558,VALID,127,VALID,0.407031,
2008-09-21, 03:32:04,VALID,1009.69,VALID,0,VALID,95.3905,VALID,0,VALID,23.5966,VALID,127,VALID,0.357031,
2008-09-21, 03:33:04,VALID,1009.7,VALID,0,VALID,95.3905,VALID,0,VALID,23.5948,VALID,125,VALID,0.342969,
2008-09-21, 03:34:04,VALID,1009.73,VALID,0,VALID,95.3905,VALID,0,VALID,23.6356,VALID,118,VALID,0.201172,
2008-09-21, 03:35:04,VALID,1009.72,VALID,0,VALID,95.3982,VALID,0,VALID,23.655,VALID,118,VALID,0.165625,
2008-09-21, 03:36:04,VALID,1009.72,VALID,0,VALID,95.4058,VALID,0,VALID,23.6727,VALID,118,VALID,0.0566406,
2008-09-21, 03:37:04,VALID,1009.7,VALID,0,VALID,95.3753,VALID,0,VALID,23.6532,VALID,118,VALID,0.00429688,
2008-09-21, 03:38:04,VALID,1009.7,VALID,0,VALID,95.3677,VALID,0.105969,VALID,23.655,VALID,118,VALID,0,
2008-09-21, 03:39:04,VALID,1009.67,VALID,0,VALID,95.3448,VALID,0,VALID,23.6532,VALID,118,VALID,0,
2008-09-21, 03:40:04,VALID,1009.64,VALID,0,VALID,95.3677,VALID,0.105969,VALID,23.6532,VALID,118,VALID,0.127344,
2008-09-21, 03:41:04,VALID,1009.65,VALID,0,VALID,95.3448,VALID,0,VALID,23.6727,VALID,118,VALID,0.398438,
2008-09-21, 03:42:04,VALID,1009.64,VALID,0,VALID,95.3524,VALID,0.105969,VALID,23.6532,VALID,118,VALID,0.500781,
2008-09-21, 03:43:04,VALID,1009.68,VALID,0,VALID,95.3372,VALID,0,VALID,23.6727,VALID,126,VALID,0.517578,